Weather Roundup
Issued by NWS Springfield, MO

Current Version | Previous Version | Text Only | Print | Product List | Glossary On
Versions: 1 2 3 4 5 6 7 8 9 10 11 12 13 14 15 16 17 18 19 20 21 22 23 24 25 26 27 28 29 30 31 32 33 34 35 36 37 38 39 40 41 42 43 44 45 46 47 48 49 50
000
NZUS99 KSGF 230107
HRRSGF

HOURLY WEATHER
NATIONAL WEATHER SERVICE SPRINGFIELD MO
700 PM CST WED FEB 22 2017

......SGF CWA......

CITY           SKY/WX    TMP DP  RH WIND       PRES   REMARKS
SPRINGFIELD    CLEAR     61  53  75 SE8       29.72R
JOPLIN         CLEAR     68  41  37 SW5       29.72R
WEST PLAINS    CLEAR     58  54  86 S5        29.79S
ROLLA          CLEAR     63  53  70 S15       29.71S
OSAGE BEACH    CLEAR     67  51  56 S8        29.71R
BRANSON        MOCLDY    66  54  63 SE9       29.75R

......SURROUNDING SGF CWA......

CITY           SKY/WX    TMP DP  RH WIND       PRES   REMARKS
CHANUTE        CLEAR     65  40  39 S10       29.67S
PARSONS        CLEAR     67  42  40 S5        29.70R
COFFEYVILLE    CLEAR     68  44  42 S6        29.69R
EMPORIA        PTCLDY    65  40  39 W5        29.67R
GROVE OK       CLOUDY    66  45  45 SW6       29.73S
ROGERS AR      CLEAR     67  47  48 SW9       29.76R
SILOAM SPRINGS CLEAR     64  46  52 S6        29.75R
HARRISON AR    CLEAR     64  54  69 S8        29.75R
NEAR YELLVILLE CLEAR     64  52  63 SE5       29.74R

......KANSAS AND MISSOURI......

CITY           SKY/WX    TMP DP  RH WIND       PRES   REMARKS
KANSAS CTY INT CLOUDY    67  34  29 NW8       29.66R
DOWNTOWN KC    PTCLDY    71  35  26 NW3       29.64R
COLUMBIA       CLEAR     62  54  74 S7        29.70R
SEDALIA        CLOUDY    67  46  47 S7        29.69R
ST JOSEPH      CLEAR     56  36  47 N8        29.67R
ST LOUIS       PTCLDY    69  55  60 S8        29.69F
SPIRIT OF STL  CLEAR     59  54  83 S3        29.68S
KIRKSVILLE     CLEAR     64  45  49 CALM      29.66R
WICHITA        PTCLDY    58  48  69 S9        29.69R
TOPEKA         CLOUDY    59  41  51 CALM      29.66R
OLATHE         CLOUDY    68  35  29 CALM      29.66R

......TENNESSEE......

CITY           SKY/WX    TMP DP  RH WIND       PRES   REMARKS
MEMPHIS        PTCLDY    68  55  63 S7        29.80R
NASHVILLE      PTCLDY    63  56  78 S5        29.85S

......ARKANSAS.......

CITY           SKY/WX    TMP DP  RH WIND       PRES   REMARKS
FAYETTEVILLE   CLEAR     62  52  69 CALM      29.75R
FT SMITH       PTCLDY    69  55  60 E6        29.72S
LITTLE ROCK    PTCLDY    58  56  93 SW7       29.82R

......OKLAHOMA.......

CITY           SKY/WX    TMP DP  RH WIND       PRES   REMARKS
TULSA          CLOUDY    71  45  39 SE7       29.68R
PONCA CITY     CLOUDY    66  42  41 SW3       29.68R
MCALESTER      PTCLDY    73  45  36 S7        29.73R
OKLAHOMA CITY  CLOUDY    66  40  38 SW5       29.71R

......IOWA............

CITY           SKY/WX    TMP DP  RH WIND       PRES   REMARKS
DES MOINES     PTCLDY    64  43  46 NW8       29.67R
QUAD CITIES    CLEAR     64  50  60 S14       29.59R

......ILLINOIS........

CITY           SKY/WX    TMP DP  RH WIND       PRES   REMARKS
QUINCY         CLEAR     59  54  83 S9        29.67R
CHICAGO        CLEAR     64  54  69 S13       29.60S



USA.gov is the U.S. government's official web portal to all federal, state and local government web resources and services.